Location: Vlissingen
(51.4500°N, 3.5830°E)
Time: 13:21:12
(UTC+01:00)

N. Korean satellite - Pass Details

Date: 09 December 2021
Orbit: 447 x 490 km, 97.3° (Epoch: 27 January)

Event Time Altitude Azimuth Distance (km) Brightness Sun altitude
Rises 04:59:09 0° 30° (NNE) 2,464 10.6 -32.9°
Reaches altitude 10° 05:02:07 10° 60° (ENE) 1,584 9.8 -32.5°
Maximum altitude 05:03:47 13° 89° (E) 1,400 9.7 -32.2°
Drops below altitude 10° 05:05:27 10° 119° (ESE) 1,578 9.8 -31.9°
Sets 05:08:23 0° 148° (SSE) 2,446 10.5 -31.5°
